Date String (YYYY-MM-DD hh:mm:ss) UTC,Instrument flags,absolute air pressure of the measurement (hPa),sample flow rate (lpm),inlet stack bypass flow (lpm),air temperature of the measurement (°C),ambient temperature measured by the external sensor (°C),aerosol sample conditioner tube jacket temperature (°C),OPC LED temperature (°C),internal box temperature (°C),relative humidity of the measurement (%),span deviation,mass concentration of particles derived from Lorenz-Mie calculation of OPC scattering (μg/m³),mass concentration of particles derived from Lorenz-Mie calculation of OPC scattering (μg/m³),mass concentration of particles derived from Lorenz-Mie calculation of OPC scattering (μg/m³)
DateTimeUTC,F1_M11,P_M11,Q1_M11,Q2_M11,T1_M11,T2_M11,T3_M11,T4_M11,T5_M11,U1_M11,ZSPAN_M11,X0_M11,X2_M11,X1_M11
2024-05-26 12:00:00,SystemResetWarning,0823.6,5.00,000.00,027.3,026.5,000.0,035.7,029.1,014.8,0000.0,0001.95,0000.45,0000.29
2024-05-26 12:01:00,SystemResetWarning,0823.7,5.00,000.00,027.3,026.5,000.0,035.7,029.1,014.3,0000.0,0001.95,0000.45,0000.28
2024-05-26 12:02:00,SystemResetWarning,0823.7,5.01,000.00,027.3,026.4,000.0,035.6,029.1,014.4,0000.0,0001.91,0000.43,0000.27
2024-05-26 12:03:00,SystemResetWarning,0823.7,5.01,000.00,027.3,026.4,000.0,035.6,029.1,014.2,0000.0,0001.89,0000.42,0000.26
2024-05-26 12:04:00,SystemResetWarning,0823.7,5.00,000.00,027.3,026.4,000.0,035.6,029.0,014.0,0000.0,0001.86,0000.41,0000.25
2024-05-26 12:05:00,SystemResetWarning,0823.8,5.00,000.00,027.3,026.3,000.0,035.6,029.0,014.4,0000.0,0001.86,0000.40,0000.25
2024-05-26 12:06:00,SystemResetWarning,0823.8,4.99,000.00,027.3,026.3,000.0,035.6,029.0,014.8,0000.0,0001.83,0000.40,0000.25
2024-05-26 12:07:00,SystemResetWarning,0823.8,4.99,000.00,027.2,026.3,000.0,035.6,028.9,014.9,0000.0,0001.73,0000.39,0000.24
2024-05-26 12:08:00,SystemResetWarning,0823.8,4.99,000.00,027.2,026.3,000.0,035.6,028.9,015.1,0000.0,0001.71,0000.38,0000.23
2024-05-26 12:09:00,SystemResetWarning,0823.9,5.00,000.00,027.2,026.3,000.0,035.6,028.9,015.1,0000.0,0001.22,0000.38,0000.23
2024-05-26 12:10:00,SystemResetWarning,0823.9,5.00,000.00,027.2,026.3,000.0,035.6,028.9,015.3,0000.0,0000.67,0000.37,0000.23
2024-05-26 12:11:00,SystemResetWarning,0823.9,5.00,000.00,027.2,026.3,000.0,035.6,028.9,015.2,0000.0,0000.80,0000.34,0000.22
2024-05-26 12:12:00,SystemResetWarning,0823.9,5.01,000.00,027.2,026.3,000.0,035.6,028.9,015.1,0000.0,0001.30,0000.33,0000.22
2024-05-26 12:13:00,SystemResetWarning,0823.9,5.00,000.00,027.2,026.3,000.0,035.5,028.9,015.3,0000.0,0001.29,0000.33,0000.22
2024-05-26 12:14:00,SystemResetWarning,0823.9,5.00,000.00,027.2,026.3,000.0,035.5,028.9,015.2,0000.0,0001.30,0000.33,0000.22
2024-05-26 12:15:00,SystemResetWarning,0823.9,4.99,000.00,027.2,026.3,000.0,035.5,028.9,015.4,0000.0,0001.30,0000.34,0000.23
2024-05-26 12:16:00,SystemResetWarning,0824.0,4.99,000.00,027.2,026.3,000.0,035.5,028.9,015.0,0000.0,0001.33,0000.35,0000.23
2024-05-26 12:17:00,SystemResetWarning,0824.0,5.01,000.00,027.2,026.3,000.0,035.5,028.9,015.1,0000.0,0001.31,0000.34,0000.22
2024-05-26 12:18:00,SystemResetWarning,0824.0,5.01,000.00,027.2,026.3,000.0,035.5,028.9,015.4,0000.0,0001.37,0000.36,0000.23
2024-05-26 12:19:00,SystemResetWarning,0824.0,5.00,000.00,027.1,026.3,000.0,035.5,028.8,015.4,0000.0,0001.35,0000.36,0000.23
2024-05-26 12:20:00,SystemResetWarning,0824.0,5.00,000.00,027.1,026.3,000.0,035.5,028.8,015.2,0000.0,0001.35,0000.36,0000.24
2024-05-26 12:21:00,SystemResetWarning,0823.9,5.00,000.00,027.1,026.3,000.0,035.5,028.8,015.2,0000.0,0001.41,0000.38,0000.24
2024-05-26 12:22:00,SystemResetWarning,0824.0,4.99,000.00,027.1,026.2,000.0,035.5,028.8,015.2,0000.0,0001.31,0000.39,0000.24
2024-05-26 12:23:00,SystemResetWarning,0824.0,4.99,000.00,027.1,026.2,000.0,035.5,028.8,015.3,0000.0,0000.68,0000.39,0000.24
2024-05-26 12:24:00,SystemResetWarning,0824.0,5.01,000.00,027.1,026.2,000.0,035.4,028.9,015.4,0000.0,0000.71,0000.40,0000.24
2024-05-26 12:25:00,SystemResetWarning,0824.0,5.01,000.00,027.1,026.2,000.0,035.4,028.8,015.3,0000.0,0001.68,0000.43,0000.25
2024-05-26 12:26:00,SystemResetWarning,0824.0,5.00,000.00,027.1,026.2,000.0,035.4,028.8,015.5,0000.0,0002.42,0000.45,0000.25
2024-05-26 12:27:00,SystemResetWarning,0824.0,5.00,000.00,027.1,026.2,000.0,035.4,028.8,015.1,0000.0,0002.37,0000.43,0000.26
2024-05-26 12:28:00,SystemResetWarning,0823.9,4.99,000.00,027.1,026.2,000.0,035.4,028.8,014.9,0000.0,0002.34,0000.43,0000.26
2024-05-26 12:29:00,SystemResetWarning,0824.0,5.00,000.00,027.1,026.1,000.0,035.4,028.8,014.5,0000.0,0002.30,0000.41,0000.27
2024-05-26 12:30:00,SystemResetWarning,0824.1,5.00,000.00,027.1,026.1,000.0,035.4,028.8,014.5,0000.0,0002.35,0000.43,0000.28
2024-05-26 12:31:00,SystemResetWarning,0824.1,5.00,000.00,027.0,026.1,000.0,035.4,028.8,014.8,0000.0,0002.45,0000.44,0000.28
2024-05-26 12:32:00,SystemResetWarning,0824.1,5.00,000.00,027.0,026.1,000.0,035.4,028.7,015.2,0000.0,0002.50,0000.45,0000.30
2024-05-26 12:33:00,SystemResetWarning,0824.2,5.00,000.00,027.0,026.1,000.0,035.4,028.7,015.2,0000.0,0002.86,0000.47,0000.31
2024-05-26 12:34:00,SystemResetWarning,0824.3,5.00,000.00,027.0,026.1,000.0,035.4,028.7,015.2,0000.0,0003.27,0000.48,0000.32
2024-05-26 12:35:00,SystemResetWarning,0824.3,5.00,000.00,027.0,026.0,000.0,035.4,028.7,015.1,0000.0,0003.25,0000.47,0000.33
2024-05-26 12:36:00,SystemResetWarning,0824.3,5.00,000.00,027.0,026.0,000.0,035.3,028.7,015.2,0000.0,0002.48,0000.47,0000.33
2024-05-26 12:37:00,SystemResetWarning,0824.3,5.00,000.00,027.0,026.0,000.0,035.3,028.7,015.3,0000.0,0001.63,0000.48,0000.33
2024-05-26 12:38:00,SystemResetWarning,0824.3,5.00,000.00,027.0,026.0,000.0,035.3,028.7,015.4,0000.0,0001.69,0000.51,0000.35
2024-05-26 12:39:00,SystemResetWarning,0824.4,5.00,000.00,027.0,026.0,000.0,035.3,028.7,015.4,0000.0,0001.75,0000.53,0000.36
2024-05-26 12:40:00,SystemResetWarning,0824.4,5.00,000.00,026.9,026.0,000.0,035.3,028.7,015.5,0000.0,0001.77,0000.55,0000.37
2024-05-26 12:41:00,SystemResetWarning,0824.4,5.02,000.00,026.9,026.0,000.0,035.3,028.7,015.4,0000.0,0001.78,0000.56,0000.37
2024-05-26 12:42:00,SystemResetWarning,0824.3,5.00,000.00,026.9,026.0,000.0,035.3,028.7,015.3,0000.0,0001.78,0000.60,0000.38
2024-05-26 12:43:00,SystemResetWarning,0824.4,5.00,000.00,026.9,025.9,000.0,035.3,028.7,015.4,0000.0,0001.76,0000.61,0000.40
2024-05-26 12:44:00,SystemResetWarning,0824.4,5.00,000.00,026.9,025.9,000.0,035.3,028.7,015.2,0000.0,0001.46,0000.61,0000.40
2024-05-26 12:45:00,SystemResetWarning,0824.4,5.00,000.00,026.9,025.9,000.0,035.3,028.6,015.0,0000.0,0001.14,0000.64,0000.42
2024-05-26 12:46:00,SystemResetWarning,0824.4,5.00,000.00,026.9,025.9,000.0,035.3,028.6,015.3,0000.0,0001.26,0000.68,0000.43
2024-05-26 12:47:00,SystemResetWarning,0824.4,5.00,000.00,026.9,025.9,000.0,035.3,028.6,015.3,0000.0,0001.37,0000.74,0000.45
2024-05-26 12:48:00,SystemResetWarning,0824.4,5.00,000.00,026.9,025.9,000.0,035.2,028.6,015.4,0000.0,0001.38,0000.75,0000.46
2024-05-26 12:49:00,SystemResetWarning,0824.5,5.00,000.00,026.9,025.9,000.0,035.2,028.6,015.4,0000.0,0001.38,0000.75,0000.47
2024-05-26 12:50:00,SystemResetWarning,0824.5,5.00,000.00,026.8,025.9,000.0,035.2,028.6,015.7,0000.0,0001.42,0000.76,0000.48
2024-05-26 12:51:00,SystemResetWarning,0824.6,5.00,000.00,026.8,025.9,000.0,035.2,028.6,015.6,0000.0,0001.42,0000.77,0000.48
2024-05-26 12:52:00,SystemResetWarning,0824.6,5.00,000.00,026.8,025.9,000.0,035.2,028.6,015.6,0000.0,0001.40,0000.75,0000.48
2024-05-26 12:53:00,SystemResetWarning,0824.7,5.00,000.00,026.8,025.9,000.0,035.2,028.5,015.7,0000.0,0001.34,0000.73,0000.48
2024-05-26 12:54:00,SystemResetWarning,0824.7,5.00,000.00,026.8,025.9,000.0,035.2,028.5,015.8,0000.0,0001.27,0000.72,0000.48
2024-05-26 12:55:00,SystemResetWarning,0824.7,5.00,000.00,026.8,025.9,000.0,035.2,028.5,015.9,0000.0,0001.27,0000.72,0000.49
2024-05-26 12:56:00,SystemResetWarning,0824.7,5.00,000.00,026.8,025.9,000.0,035.1,028.5,015.7,0000.0,0001.23,0000.73,0000.50
2024-05-26 12:57:00,SystemResetWarning,0824.7,5.01,000.00,026.8,025.9,000.0,035.1,028.5,015.7,0000.0,0001.15,0000.73,0000.51
2024-05-26 12:58:00,SystemResetWarning,0824.7,5.01,000.00,026.8,025.9,000.0,035.1,028.5,015.8,0000.0,0001.10,0000.71,0000.52
2024-05-26 12:59:00,SystemResetWarning,0824.7,5.00,000.00,026.8,025.9,000.0,035.1,028.5,015.6,0000.0,0001.14,0000.72,0000.52
